BRITE-PL (39431 NORAD) Tracking and Keplerian Element Data

This shows tracking and keplerian element data for the satellite.

Feedback or suggestion? Click here.




ElementValue
Catalog39431
NameBRITE-PL
Epoch Orbit22774
Epoch Day74.89859705
Epoch Year2018
RAAN34.1199
Inclination97.7465
Eccentricity0.0202485
Argument of Perigee355.3898
Mean Anonmoly4.5425
Mean Motion14.46916341
Decay Rate8.8E-07
L11 39431U 13066R 18074.89859705 .00000088 00000-0 29324-4 0 9997
L22 39431 97.7465 34.1199 0202485 355.3898 4.5425 14.46916341227740



Live tracking and technical data element details for BRITE-PL (NORAD 39431). BRITE-PL can be tracked NOW for your location showing map with azimuth and elevation plus other details from your city location.







IsCatalogInMostPopularTable: catalog: 39431, numindb: 622
Update: records affected: 1



GetName: 39431 BRITE-PL

Hit Count: updated at: Fri, 14 Jun 2024 18:03:08 GMT